Location: *
(44.3925°N, 5.4708°E)
Time: 12:06:29
(UTC+00:00)

NOSS 3-4 (A) - Pass Details

Date: 18 September 2019
Orbit: 910 x 1303 km, 63.4° (Epoch: 21 September)

Event Time Altitude Azimuth Distance (km) Brightness Sun altitude
Rises 17:58:56 0° 323° (NW) 3,788 7.3 -3.5°
Reaches altitude 10° 18:01:40 10° 332° (NNW) 2,890 6.5 -4.0°
Maximum altitude 18:08:07 40° 41° (NE) 1,614 4.4 -5.1°
Drops below altitude 10° 18:15:07 10° 109° (ESE) 3,149 5.5 -6.4°
Enters shadow 18:16:07 - 112° (ESE) 3,472 5.7 -6.6°
